Flag for Denmark Weather past 2 weeks in Aarhus, Denmark

Now
81 °F

Pleasantly warm.


Feels Like: 80 °F
Forecast: 65 / 81 °F
Wind: 13 mph from East

Location: Tirstrup

Current Time: Jul 25, 2014 at 2:02:11 PM

Latest Report: Jul 25, 2014 at 1:20 PM


Visibility: N/A

Pressure: 30.12 "Hg

Humidity: 34%

Dew point: 50 °F

Location of AarhusLocation

Historic Weather in Aarhus — Graph

°F

Aarhus temperature yesterday

Maximum temperature yesterday: 82 °F (at 4:50 PM)
Minimum temperature yesterday: 57 °F (at 3:50 AM)
Average temperature yesterday: 72 °F

Past Weeks' High & Low Weather Summary

 TemperatureHumidityPressure
High82 °F (Jul 10, 4:50 PM)94% (Jul 13, 8:20 AM)30.27 "Hg (Jul 13, 8:20 AM)
Low48 °F (Jul 17, 5:20 AM)26% (Jul 23, 1:20 PM)29.50 "Hg (Jul 13, 9:20 PM)
Average68 °F65%30.03 "Hg
* Reported Jul 10 12:20 PM — Jul 25 12:50 PM, Aarhus, Weather by CustomWeather, © 2014

Note: Actual official high and low records may vary slightly from our data, if they occured in-between our weather recording intervals... More about our weather records

Advertising

Aarhus weather history for previous 24 hours

 ConditionsComfort  
Time TempWeatherWind HumidityBarometerVisibility
12:50 PM
Jul 25
81 °FPleasantly warm.15 mph32%30.12 "HgN/A
12:20 PM81 °FPleasantly warm.14 mph30%30.12 "HgN/A
11:50 AM81 °FPleasantly warm.13 mph30%30.12 "HgN/A
11:20 AM81 °FPleasantly warm.13 mph34%30.12 "HgN/A
10:50 AM79 °FPleasantly warm.12 mph39%30.12 "HgN/A
10:20 AM77 °FWarm.10 mph44%30.12 "HgN/A
9:50 AM77 °FWarm.8 mph51%30.12 "HgN/A
9:20 AM75 °FMild.5 mph57%30.12 "HgN/A
8:50 AM73 °FMild.7 mph57%30.12 "HgN/A
8:20 AM73 °FMild.7 mph61%30.12 "HgN/A
7:50 AM70 °FMild.2 mph83%30.12 "HgN/A
7:20 AM66 °FMild.1 mph83%30.12 "HgN/A
6:50 AM63 °FMild.2 mph88%30.12 "HgN/A
6:20 AM61 °FScattered clouds.2 mph83%30.12 "HgN/A
5:50 AM59 °FFog.No wind88%30.12 "Hg1 mi
5:20 AM61 °FCool.No wind83%30.12 "Hg4 mi
4:50 AM59 °FFog.1 mph88%30.12 "Hg1 mi
4:20 AM61 °FCool.1 mph83%30.12 "HgN/A
3:50 AM61 °FCool.1 mph88%30.12 "HgN/A
3:20 AM63 °FPassing clouds.2 mph83%30.12 "HgN/A
2:50 AM61 °FPassing clouds.2 mph88%30.12 "HgN/A
2:20 AM61 °FPassing clouds.5 mph83%30.12 "HgN/A
1:50 AM61 °FFog.2 mph88%30.15 "Hg2 mi
1:20 AM63 °FFog.1 mph83%30.15 "Hg2 mi
12:50 AM63 °FMild.1 mph83%30.15 "HgN/A
12:20 AM64 °FMild.2 mph78%30.15 "HgN/A
11:50 PM
Jul 24
64 °FMild.2 mph78%30.15 "HgN/A
11:20 PM66 °FMild.No wind73%30.15 "HgN/A
10:50 PM70 °FLight rain. Overcast.No wind64%30.15 "HgN/A
10:20 PM72 °FMild.1 mph65%30.15 "HgN/A
9:50 PM73 °FMild.6 mph57%30.15 "HgN/A
9:20 PM75 °FMild.6 mph54%30.15 "HgN/A
8:50 PM77 °FWarm.7 mph44%30.15 "HgN/A
8:20 PM79 °FPleasantly warm.8 mph39%30.12 "HgN/A
7:50 PM81 °FPleasantly warm.8 mph30%30.12 "HgN/A
7:20 PM81 °FPleasantly warm.8 mph30%30.12 "HgN/A
6:50 PM82 °FPleasantly warm.9 mph28%30.12 "HgN/A
6:20 PM82 °FPleasantly warm.9 mph28%30.12 "HgN/A
5:50 PM82 °FPleasantly warm.8 mph28%30.12 "HgN/A
5:20 PM82 °FPleasantly warm.9 mph28%30.12 "HgN/A
4:50 PM82 °FPleasantly warm.10 mph28%30.15 "HgN/A
4:20 PM81 °FPleasantly warm.8 mph32%30.15 "HgN/A
3:50 PM81 °FPleasantly warm.10 mph34%30.15 "HgN/A
3:20 PM81 °FPleasantly warm.10 mph34%30.15 "HgN/A
2:50 PM81 °FPleasantly warm.10 mph37%30.15 "HgN/A
2:20 PM79 °FPleasantly warm.12 mph34%30.18 "HgN/A
Weather by CustomWeather, © 2014

See weather overviewHow to use our weather pages